Simultaneous Nadir Overpasses (SNOs) Predictions

Prediction of SNOs between GOES-14 and NOAA-20 Satellite Orbit:

Table of predicted SNOs for the next 14.0 days since TLE Epoch: 5/18/2024
Index Date Time (GOES-14) GOES-14 Lat,Lon NOAA-20 Lat,Lon Distance(km) Time Diff (sec)
1 05/18/2024 08:27:50 0.14,-108.64 -0.57,-105.46 362.42 80
2 05/19/2024 20:47:03 -0.11,-108.63 -0.59,-110.76 242.20 80
3 05/20/2024 20:30:57 -0.12,-108.63 0.45,-106.23 275.09 80
4 05/22/2024 08:50:01 0.09,-108.63 0.75,-111.48 325.35 80
5 05/23/2024 08:33:55 0.10,-108.62 -0.29,-106.95 191.21 80
6 05/24/2024 20:53:07 -0.08,-108.60 -0.91,-112.24 415.13 80
7 05/25/2024 20:37:01 -0.09,-108.59 0.14,-107.71 101.73 80
8 05/27/2024 08:56:05 0.06,-108.59 1.05,-112.97 498.48 80
9 05/28/2024 08:39:57 0.08,-108.58 0.05,-108.42 17.90 80
10 05/30/2024 20:40:22 -0.07,-108.54 -0.23,-109.17 72.39 80
11 05/31/2024 20:24:15 -0.09,-108.53 0.77,-104.63 444.66 80
